OIIK  Qazvin  Airport

Qazvin, Iran

Add Bookmark
ICAO OIIK
Type Airport
Status Operational
Latitude
36° 14' 24" N
36.240101
Longitude
50° 2' 49" E
50.047100
Local (GMT +4.5 ) UTC
Aug 30, 2016 02:04 am Aug 29, 2016 21:34
Sunrise-Sunset Local UTC
Begin Civil Twilight 06:12 am 01:42
Sunrise 06:39 am 02:09
Sunset 07:41 pm 15:11
End Civil Twilight 08:07 pm 15:37
VFR
VFR
MVFR
MVFR
IFR
IFR
LIFR
LIFR
Unknown
Unavailable

Current Weather

METAR Observed VFR
OIIK 292000Z 03004KT CAVOK 25/07 Q1017 Mon, Aug 29, 2016 @ 20:00 UTC
(1 Hour, 34 Minutes ago)
Visual Flight Rules
Wind Visibility Conditions
030° at 4 knots (7 kph) 10 km or more
  • No significant weather
Temperatures Readings Precipitation
Current Temp
25°C
77°F
Dewpoint
7°C
45°F
Humidity 32%
Altimeter 30.03" Hg
Sea Level Pressure 1,017 mb
Field Elevation
1,278 m
4,193 ft
None Recorded

Additional weather within a 92.6km radius of OIIK

Map ICAO Location
OIIP 87km SE (126°)
VFR
VFR
MVFR
MVFR
IFR
IFR
LIFR
LIFR
Unknown
Unavailable
-
-

CheckWX.com is intended as a tool to help pilots better visualize weather data. It is not intended as a substitute for an official weather briefing obtained from a Flight Service Station. CheckWX.com does not meet the FAA requirements for an official pre-flight weather briefing. Therefore, it's important that pilots still call and obtain an official FSS pre-flight weather briefing.

© 2007-2016 CheckWX.com
21:34:02 UTC